Location: Stavanger
(58.9670°N, 5.7500°E)
Time: 09:15:59
(UTC+02:00)

ISS - Visible Passes

Search period start: 29 March 2017 00:00
Search period end: 08 April 2017 00:00
Orbit: 399 x 409 km, 51.6° (Epoch: 29 March)

Date Brightness Start Highest point End Pass type
(mag) Time Alt. Az. Time Alt. Az. Time Alt. Az.
29 Mar -1.5 21:44:36 10° S 21:45:05 11° SSE 21:45:05 11° SSE visible
30 Mar -1.7 22:26:56 10° SSW 22:28:00 15° SSW 22:28:00 15° SSW visible
31 Mar -2.0 21:35:05 10° SSW 21:37:12 16° SSE 21:38:03 15° SE visible
31 Mar -1.2 23:10:18 10° SW 23:10:43 12° SW 23:10:43 12° SW visible
01 Apr -2.3 22:18:08 10° SW 22:20:37 22° S 22:20:37 22° S visible
02 Apr -2.2 21:26:02 10° SW 21:28:32 20° SSE 21:30:25 13° SE visible
02 Apr -1.7 23:01:44 10° WSW 23:03:03 17° SW 23:03:03 17° SW visible
03 Apr -2.4 22:09:26 10° SW 22:12:06 23° S 22:12:46 21° SSE visible
04 Apr -2.3 21:17:12 10° SW 21:19:50 22° S 21:22:25 10° ESE visible
04 Apr -1.9 22:53:16 10° WSW 22:55:04 18° SSW 22:55:04 18° SSW visible
05 Apr -2.2 22:00:50 10° WSW 22:03:23 21° S 22:04:41 17° SSE visible
06 Apr -2.2 21:08:29 10° WSW 21:11:06 22° S 21:13:44 10° SE visible
06 Apr -1.6 22:44:58 10° WSW 22:46:49 14° SSW 22:46:54 14° SSW visible
07 Apr -1.8 21:52:19 10° WSW 21:54:35 17° SSW 21:56:28 12° SSE visible
